Flag Weather past 2 weeks in Richmond Hill, Ontario, Canada

Now
25 °F

Overcast.


Feels Like: 19 °F
Forecast: 22 / 38 °F
Wind: 5 mph from West

Location: Toronto Buttonville

Current Time: Nov 28, 2014 at 10:03:40 PM

Latest Report: Nov 28, 2014 at 9:00 PM


Visibility: 15 mi

Pressure: 30.22 "Hg

Humidity: 63%

Dew point: 14 °F

Location of Richmond HillLocation

Historic Weather in Richmond Hill — Graph

°F

Richmond Hill temperature yesterday

Maximum temperature yesterday: 34 °F (at 12:00 PM)
Minimum temperature yesterday: 27 °F (at 7:00 AM)
Average temperature yesterday: 30 °F

Past Weeks' High & Low Weather Summary

 TemperatureHumidityPressure
High61 °F (Nov 24, 1:00 PM)100% (Nov 17, 12:00 AM)30.45 "Hg (Nov 17, 12:00 AM)
Low16 °F (Nov 18, 6:00 AM)46% (Nov 20, 3:00 PM)29.13 "Hg (Nov 24, 1:00 PM)
Average30 °F74%29.98 "Hg
* Reported Nov 13 9:00 PM — Nov 28 9:00 PM, Richmond Hill, Weather by CustomWeather, © 2014

Note: Actual official high and low records may vary slightly from our data, if they occured in-between our weather recording intervals... More about our weather records

Advertising

Richmond Hill weather history for previous 24 hours

 ConditionsComfort  
Time TempWeatherWind HumidityBarometerVisibility
9:00 PM
Nov 28
25 °FOvercast.5 mph63%30.22 "Hg15 mi
8:00 PM25 °FOvercast.5 mph63%30.22 "Hg15 mi
7:00 PM25 °FSnow flurries. Passing clouds.6 mph69%30.23 "Hg14 mi
6:03 PMN/ASnow flurries.8 mphN/AN/A10 mi
6:00 PM25 °FScattered showers. Partly cloudy.9 mph69%30.23 "Hg14 mi
5:00 PM25 °FPassing clouds.5 mph54%30.22 "Hg15 mi
4:00 PM27 °FSnow flurries. Partly sunny.9 mph54%30.22 "Hg14 mi
3:00 PM25 °FSnow flurries. Mostly cloudy.6 mph63%30.22 "Hg14 mi
2:00 PM25 °FSnow flurries. Overcast.No wind63%30.22 "Hg14 mi
1:00 PM25 °FSnow flurries. Partly sunny.5 mph59%30.24 "Hg14 mi
12:49 PMN/ASnow flurries.7 mphN/AN/A14 mi
12:00 PM25 °FPartly sunny.9 mph59%30.25 "Hg15 mi
11:00 AM25 °FPartly sunny.8 mph59%30.28 "Hg15 mi
10:00 AM23 °FScattered clouds.9 mph58%30.27 "Hg15 mi
9:00 AM21 °FScattered clouds.7 mph68%30.27 "Hg15 mi
8:00 AM19 °FPassing clouds.6 mph73%30.26 "Hg15 mi
7:00 AM19 °FPassing clouds.5 mph73%30.25 "Hg15 mi
6:00 AM21 °FPassing clouds.7 mph68%30.24 "Hg15 mi
5:00 AM21 °FPassing clouds.3 mph74%30.22 "Hg15 mi
4:00 AM21 °FPassing clouds.7 mph68%30.20 "Hg15 mi
3:00 AM21 °FPassing clouds.7 mph74%30.19 "Hg15 mi
2:00 AM23 °FPassing clouds.6 mph68%30.18 "Hg15 mi
1:00 AM25 °FPassing clouds.10 mph63%30.17 "Hg15 mi
12:00 AM25 °FPassing clouds.15 mph69%30.16 "Hg15 mi
11:00 PM
Nov 27
27 °FPassing clouds.6 mph74%30.15 "Hg15 mi
10:00 PM27 °FLight snow. Overcast.7 mph93%30.15 "Hg6 mi
Weather by CustomWeather, © 2014

See weather overviewHow to use our weather pages